This is the latest recevied weather packets stored in our database for station/object Kisslegg. If no packets are shown the sender has not sent any weather packets the latest 10 day(s).
| Time | Temp. | Humidity | Pressure | Rain* | Wind** | Luminosity | Snow |
|---|---|---|---|---|---|---|---|
| 1777264331 | 6.11° C | 76% | 1020.4 hPa | 0 mm | - | - | - |
| 1777262533 | 6.67° C | 73% | 1020 hPa | 0 mm | - | - | - |
| 1777260731 | 6.67° C | 71% | 1020.1 hPa | 0 mm | - | - | - |
| 1777258931 | 7.78° C | 69% | 1020.1 hPa | 0 mm | - | - | - |
| 1777257131 | 7.78° C | 67% | 1020.2 hPa | 0 mm | - | - | - |
| 1777255332 | 8.33° C | 64% | 1020.2 hPa | 0 mm | - | - | - |
| 1777253531 | 8.89° C | 62% | 1020.3 hPa | 0 mm | - | - | - |
| 1777251731 | 8.89° C | 62% | 1020.5 hPa | 0 mm | - | - | - |
| 1777249930 | 9.44° C | 63% | 1020.8 hPa | 0 mm | - | - | - |
| 1777248129 | 8.89° C | 63% | 1020.8 hPa | 0 mm | - | - | - |
| 1777246330 | 9.44° C | 62% | 1021 hPa | 0 mm | - | - | - |
| 1777244532 | 9.44° C | 61% | 1020.9 hPa | 0 mm | - | - | - |
| 1777242729 | 10° C | 56% | 1020.9 hPa | 0 mm | - | - | - |
| 1777240932 | 10.56° C | 55% | 1020.7 hPa | 0 mm | - | - | - |
| 1777239130 | 11.67° C | 54% | 1020.9 hPa | 0 mm | - | - | - |
| 1777237329 | 11.67° C | 55% | 1021 hPa | 0 mm | - | - | - |
| 1777235530 | 11.67° C | 54% | 1020.8 hPa | 0 mm | - | - | - |
| 1777233730 | 12.22° C | 53% | 1020.7 hPa | 0 mm | - | - | - |
| 1777231930 | 12.78° C | 52% | 1020.4 hPa | 0 mm | - | - | - |
| 1777230130 | 13.33° C | 52% | 1020.1 hPa | 0 mm | - | - | - |
| 1777228331 | 14.44° C | 49% | 1020 hPa | 0 mm | - | - | - |
| 1777226530 | 15.56° C | 48% | 1019.6 hPa | 0 mm | - | - | - |
| 1777224730 | 16.11° C | 45% | 1019.4 hPa | 0 mm | - | - | - |
| 1777222930 | 17.22° C | 41% | 1019.4 hPa | 0 mm | - | - | - |
| 1777221130 | 17.78° C | 36% | 1019.5 hPa | 0 mm | - | - | - |
* Rain since midnight (hover to see other rain measurements)
** Current wind speed in m/s (hover to see current wind gust speed)